[[{"header":{"parameterUnit":"m.s-1","parameterCategory":1,"la1":30.2991,"la2":30.254,"lo1":-89.0895,"lo2":-89.0444,"dy":0.0017,"dx":0.0017,"nx":28,"ny":28,"refTime":"2025-09-07T09:00:00:Z","depth":0,"parameterNumber":2,"parameterNumberName":"U-component_of_WINDS"},"data":[0,0,0,0,0,0,0,0,0,0,0,0,0,0,0,0,0,0,0,0,0,0,0,0,0,0,0,0,0,0,0,0,0,0,0,0,0,0,0,0,0,0,0,0,0,0,0,0,0,0,0,0,0,0,0,0,0,0,-2.2605,-2.2606,0,-2.2645,-2.2646,-2.2646,-2.2572,-2.257,-2.2567,-2.2565,-2.2607,-2.261,-2.2613,0,0,0,0,0,0,0,0,0,0,0,0,0,-2.2464,-2.2467,-2.2605,-2.2606,-2.2606,-2.2645,-2.2646,-2.2646,-2.2572,-2.2569,-2.2566,-2.2564,-2.2606,-2.261,-2.2614,0,0,0,0,0,0,0,0,0,0,0,0,0,-2.2517,-2.2468,-2.2605,-2.2574,-2.2572,-2.2645,-2.2646,-2.2647,-2.2573,-2.2569,-2.2566,-2.2562,-2.2604,-2.2609,-2.2614,-2.272,0,0,-2.263,-2.2632,0,0,0,0,0,0,0,0,-2.2514,-2.2522,-2.2578,-2.2576,-2.2574,-2.26,-2.2611,-2.2671,-2.2574,-2.2573,-2.2565,-2.256,-2.2607,-2.2612,-2.2628,-2.2722,-2.2724,-2.263,-2.2634,-2.2636,-2.2637,0,0,0,0,0,0,0,-2.251,-2.252,-2.2621,-2.2579,-2.2576,-2.2558,-2.2561,-2.2622,-2.261,-2.2572,-2.2567,-2.2573,-2.2606,-2.2623,-2.2628,-2.2725,-2.263,-2.2635,-2.2638,-2.264,-2.2907,-2.2911,0,0,0,0,0,0,-2.251,-2.2517,-2.262,-2.2622,-2.2534,-2.2563,-2.2567,-2.2595,-2.261,-2.2608,-2.2576,-2.2569,-2.2616,-2.2622,-2.2629,-2.2755,-2.2636,-2.2641,-2.2643,-2.2903,-2.2908,-2.2912,0,0,0,0,0,0,-2.2508,-2.252,-2.2618,-2.2568,-2.2579,-2.257,-2.2602,-2.2598,-2.2615,-2.2612,-2.261,-2.2596,-2.2613,-2.2622,-2.2698,-2.2755,-2.2643,-2.2648,-2.2899,-2.2905,-2.291,-2.3006,0,0,0,0,0,0,-2.2504,-2.252,-2.256,-2.257,-2.2582,-2.2687,-2.2605,-2.2601,-2.2624,-2.2616,-2.263,-2.2629,-2.2611,-2.2691,-2.2703,-2.276,-2.2652,-2.2893,-2.2901,-2.2908,-2.2998,-2.3015,-2.3029,0,0,0,0,0,-2.2499,-2.2586,-2.2563,-2.2576,-2.2633,-2.269,-2.2697,-2.2675,-2.2629,-2.267,-2.2667,-2.2629,-2.2746,-2.2699,-2.2713,-2.2772,-2.289,-2.2899,-2.2908,-2.2991,-2.3011,-2.3029,0,0,0,0,0,0,-2.2585,-2.2587,-2.2561,-2.2654,-2.2672,-2.2678,-2.2729,-2.2697,-2.2729,-2.272,-2.269,-2.2694,-2.2776,-2.2781,-2.2729,-2.2875,-2.281,-2.2823,-2.2869,-2.2888,-2.2904,-2.2902,-2.2656,0,0,0,0,0,-2.2614,-2.266,-2.266,-2.2742,-2.2752,-2.2739,-2.2763,-2.2743,-2.2762,-2.2769,-2.2772,-2.2792,-2.2832,-2.286,-2.2898,-2.2997,-2.2999,-2.3044,-2.306,-2.3073,-2.3084,-2.3137,-2.3157,-2.2942,-2.2942,-2.2942,0,0,-2.2676,-2.2683,-2.2714,-2.2759,-2.2771,-2.282,-2.2746,-2.2801,-2.2837,-2.2777,-2.285,-2.2852,-2.2871,-2.296,-2.2998,-2.2966,-2.3144,-2.3084,-2.3095,-2.3099,-2.3148,-2.3169,-2.3187,-2.2948,-2.2947,-2.2946,0,0,-2.2814,-2.2823,-2.2892,-2.2906,-2.2924,-2.2914,-2.2931,-2.2941,-2.294,-2.3012,-2.2968,-2.301,-2.3081,-2.3096,-2.3114,-2.3255,-2.322,-2.3267,-2.335,-2.3401,-2.3418,-2.3433,-2.3484,-2.3503,-2.3278,-2.3279,-2.3279,0,-2.2888,-2.296,-2.2932,-2.299,-2.3011,-2.2958,-2.3028,-2.3042,-2.3072,-2.3088,-2.3051,-2.3138,-2.3147,-2.3238,-2.3272,-2.3288,-2.3306,-2.3267,-2.3418,-2.3433,-2.3446,-2.3494,-2.3514,-2.3284,-2.3284,-2.3283,-2.3283,0,-2.3051,-2.3101,-2.3155,-2.3185,-2.3211,-2.3275,-2.3256,-2.3286,-2.3263,-2.3257,-2.333,-2.3339,-2.3377,-2.3396,-2.3375,-2.3484,-2.3464,-2.3423,-2.3358,-2.3473,-2.3518,-2.3536,-2.3292,-2.329,-2.3289,-2.3287,0,0,-2.3247,-2.3259,-2.3279,-2.3292,-2.3307,-2.3346,-2.3406,-2.3442,-2.3469,-2.3491,-2.3541,-2.3601,-2.3563,-2.3583,-2.3562,-2.3607,-2.3719,-2.3561,-2.3561,-2.3591,-2.3839,-2.3871,-2.3893,-2.3695,-2.3698,-2.3701,-2.3838,0,-2.3384,-2.3489,-2.3464,-2.3567,-2.3613,-2.3562,-2.3614,-2.363,-2.3625,-2.3662,-2.3657,-2.37,-2.3646,-2.3658,-2.37,-2.3696,-2.3768,-2.3686,-2.3742,-2.3744,-2.374,-2.3916,-2.395,-2.4079,-2.3855,-2.3858,-2.386,0,-2.3559,-2.3587,-2.3695,-2.3702,-2.372,-2.3768,-2.3799,-2.3836,-2.3851,-2.3844,-2.3865,-2.3835,-2.3894,-2.3827,-2.3908,-2.3852,-2.3873,-2.3874,-2.3879,-2.3885,-2.3811,-2.3928,-2.412,-2.414,-2.3887,-2.3885,-2.3883,0,-2.3693,-2.3757,-2.3829,-2.3841,-2.3851,-2.3886,-2.3892,-2.3903,-2.3927,-2.3953,-2.3968,-2.4001,-2.402,-2.4046,-2.4026,-2.3979,-2.411,-2.4041,-2.4107,-2.4107,-2.4139,-2.4137,-2.4338,-2.415,-2.4149,-2.4149,-2.4148,0,-2.385,-2.3918,-2.3889,-2.3934,-2.4008,-2.3979,-2.4053,-2.4052,-2.4063,-2.4106,-2.4064,-2.4105,-2.4075,-2.4114,-2.4098,-2.4168,-2.4176,-2.4173,-2.4168,-2.4178,-2.4178,-2.4192,-2.4183,-2.4154,-2.4153,-2.4152,-2.4151,0,-2.4013,-2.3996,-2.4072,-2.4074,-2.4076,-2.4131,-2.4133,-2.4174,-2.4165,-2.422,-2.4231,-2.4218,-2.4261,-2.4242,-2.4289,-2.4278,-2.4367,-2.435,-2.4362,-2.4358,-2.4425,-2.442,-2.4643,-2.4671,-2.4464,-2.4466,-2.4467,0,-2.4115,-2.4166,-2.4173,-2.4199,-2.4208,-2.425,-2.4273,-2.4245,-2.4271,-2.4291,-2.433,-2.4369,-2.44,-2.4471,-2.4465,-2.45,-2.4484,-2.4559,-2.4489,-2.4497,-2.4486,-2.4484,-2.4489,-2.4575,-2.4577,-2.4579,-2.4581,0,-2.4299,-2.4288,-2.4323,-2.4355,-2.4383,-2.4407,-2.4427,-2.445,-2.4423,-2.4454,-2.4497,-2.4521,-2.4567,-2.4607,-2.4637,-2.4642,-2.4607,-2.4602,-2.462,-2.4631,-2.4636,-2.4635,-2.4403,-2.4598,-2.4596,-2.4595,-2.4594,-2.4593,-2.4435,-2.4478,-2.449,-2.453,-2.4541,-2.4561,-2.4599,-2.4594,-2.463,-2.4666,-2.4646,-2.4697,-2.4709,-2.4746,-2.4756,-2.4795,-2.4765,-2.479,-2.4796,-2.4803,-2.4812,-2.4629,-2.48,-2.4799,-2.4799,-2.4798,-2.4798,0,-2.4618,-2.4622,-2.4659,-2.4688,-2.4719,-2.4682,-2.4702,-2.4731,-2.4776,-2.479,-2.482,-2.487,-2.4908,-2.4903,-2.4938,-2.497,-2.4955,-2.498,-2.4978,-2.498,-2.4837,-2.4819,-2.4992,-2.4992,-2.4992,-2.4992,-2.4992,-2.4992,-2.4717,-2.4787,-2.4777,-2.4852,-2.4856,-2.4905,-2.492,-2.4937,-2.4948,-2.5005,-2.5036,-2.5033,-2.5039,-2.5074,-2.5106,-2.5104,-2.5119,-2.5151,-2.5143,-2.5009,-2.499,-2.4972,-2.4955,-2.5154,-2.5154,-2.5283,-2.5284,-2.5285]},{"header":{"parameterUnit":"m.s-1","parameterCategory":1,"la1":30.2991,"la2":30.254,"lo1":-89.0895,"lo2":-89.0444,"dy":0.0017,"dx":0.0017,"nx":28,"ny":28,"refTime":"2025-09-07T09:00:00:Z","depth":0,"parameterNumber":3,"parameterNumberName":"V-component_of_WINDS"},"data":[0,0,0,0,0,0,0,0,0,0,0,0,0,0,0,0,0,0,0,0,0,0,0,0,0,0,0,0,0,0,0,0,0,0,0,0,0,0,0,0,0,0,0,0,0,0,0,0,0,0,0,0,0,0,0,0,0,0,-6.5239,-6.524,0,-6.5315,-6.5316,-6.5317,-6.5222,-6.5218,-6.5215,-6.5211,-6.5284,-6.5289,-6.5294,0,0,0,0,0,0,0,0,0,0,0,0,0,-6.5003,-6.5008,-6.5239,-6.524,-6.5241,-6.5315,-6.5316,-6.5317,-6.5222,-6.5218,-6.5214,-6.521,-6.5282,-6.5288,-6.5294,0,0,0,0,0,0,0,0,0,0,0,0,0,-6.5095,-6.5009,-6.5239,-6.5202,-6.52,-6.5315,-6.5316,-6.5318,-6.5223,-6.5218,-6.5213,-6.5208,-6.528,-6.5288,-6.5295,-6.5448,0,0,-6.5319,-6.5322,0,0,0,0,0,0,0,0,-6.509,-6.5104,-6.5207,-6.5205,-6.5203,-6.5254,-6.526,-6.5361,-6.5224,-6.5214,-6.5211,-6.5205,-6.5278,-6.5285,-6.5311,-6.5451,-6.5454,-6.532,-6.5324,-6.5328,-6.533,0,0,0,0,0,0,0,-6.5084,-6.51,-6.5269,-6.5208,-6.5206,-6.518,-6.5187,-6.5278,-6.5274,-6.5215,-6.5208,-6.5219,-6.5275,-6.5304,-6.5312,-6.5455,-6.5319,-6.5326,-6.5331,-6.5334,-6.5722,-6.5727,0,0,0,0,0,0,-6.5082,-6.5095,-6.5266,-6.5271,-6.5132,-6.5188,-6.5197,-6.5242,-6.5273,-6.5273,-6.5223,-6.5214,-6.5293,-6.5303,-6.5314,-6.5493,-6.5328,-6.5335,-6.5339,-6.5716,-6.5723,-6.5729,0,0,0,0,0,0,-6.5078,-6.5099,-6.5263,-6.5181,-6.52,-6.5198,-6.525,-6.5247,-6.5275,-6.5279,-6.5277,-6.5253,-6.5289,-6.5303,-6.5415,-6.5495,-6.5338,-6.5345,-6.571,-6.5719,-6.5726,-6.5854,0,0,0,0,0,0,-6.5071,-6.5098,-6.5157,-6.5184,-6.5205,-6.5366,-6.5255,-6.5252,-6.5289,-6.5278,-6.5307,-6.5307,-6.5286,-6.5404,-6.5423,-6.5502,-6.5352,-6.5703,-6.5714,-6.5724,-6.5843,-6.5866,-6.5886,0,0,0,0,0,-6.5063,-6.5189,-6.5161,-6.5182,-6.528,-6.5371,-6.5383,-6.5358,-6.5296,-6.5355,-6.5357,-6.5306,-6.5483,-6.5416,-6.5437,-6.552,-6.5697,-6.5711,-6.5723,-6.5833,-6.5861,-6.5885,0,0,0,0,0,0,-6.5171,-6.5192,-6.5161,-6.53,-6.5334,-6.5354,-6.5428,-6.5389,-6.5441,-6.5428,-6.5393,-6.54,-6.552,-6.5531,-6.5456,-6.5668,-6.558,-6.5597,-6.5657,-6.5683,-6.5704,-6.5699,-6.5358,0,0,0,0,0,-6.5211,-6.5285,-6.5298,-6.5419,-6.5439,-6.5431,-6.5469,-6.5447,-6.5481,-6.5494,-6.5505,-6.5538,-6.56,-6.5642,-6.57,-6.5844,-6.5848,-6.5911,-6.5932,-6.595,-6.5965,-6.604,-6.6068,-6.5771,-6.5771,-6.5771,0,0,-6.5294,-6.5315,-6.5363,-6.5442,-6.5466,-6.5541,-6.5443,-6.5527,-6.5581,-6.5506,-6.5613,-6.5622,-6.5656,-6.5784,-6.5841,-6.5797,-6.6048,-6.5966,-6.598,-6.5986,-6.6056,-6.6084,-6.6109,-6.578,-6.5778,-6.5777,0,0,-6.5483,-6.5508,-6.561,-6.5637,-6.5675,-6.5669,-6.5694,-6.572,-6.5723,-6.583,-6.5775,-6.5838,-6.5947,-6.5974,-6.6001,-6.62,-6.6153,-6.6219,-6.6331,-6.6404,-6.6428,-6.6448,-6.6518,-6.6543,-6.6234,-6.6235,-6.6235,0,-6.5581,-6.5694,-6.5667,-6.5755,-6.579,-6.5727,-6.583,-6.5856,-6.5911,-6.5935,-6.5885,-6.6021,-6.6039,-6.6172,-6.622,-6.6245,-6.627,-6.6216,-6.6427,-6.6447,-6.6466,-6.6532,-6.6558,-6.6242,-6.6242,-6.6241,-6.624,0,-6.5812,-6.5891,-6.5969,-6.6025,-6.6069,-6.6163,-6.6149,-6.6196,-6.617,-6.6168,-6.6276,-6.6296,-6.6357,-6.6386,-6.6362,-6.6515,-6.6487,-6.6433,-6.6343,-6.6502,-6.6564,-6.6589,-6.6253,-6.6251,-6.6248,-6.6246,0,0,-6.6071,-6.6112,-6.6141,-6.6165,-6.6202,-6.6262,-6.6352,-6.6413,-6.6453,-6.6493,-6.6566,-6.666,-6.661,-6.6641,-6.6618,-6.6683,-6.6837,-6.662,-6.6621,-6.6659,-6.7006,-6.7046,-6.7075,-6.6807,-6.6811,-6.6815,-6.7002,0,-6.626,-6.642,-6.6398,-6.655,-6.6621,-6.6562,-6.664,-6.667,-6.6671,-6.6729,-6.6728,-6.6795,-6.6725,-6.6743,-6.6804,-6.6805,-6.6906,-6.6792,-6.6873,-6.6876,-6.6866,-6.7108,-6.715,-6.7326,-6.7026,-6.703,-6.7033,0,-6.6503,-6.6553,-6.6713,-6.6738,-6.6767,-6.6838,-6.6891,-6.6949,-6.6981,-6.6976,-6.7011,-6.6976,-6.7064,-6.6974,-6.7093,-6.7016,-6.7047,-6.7052,-6.7059,-6.7065,-6.6964,-6.7119,-6.7382,-6.7408,-6.7071,-6.7068,-6.7065,0,-6.6675,-6.6782,-6.6891,-6.6914,-6.6946,-6.6997,-6.7013,-6.704,-6.7077,-6.7123,-6.7146,-6.7201,-6.7231,-6.7273,-6.7252,-6.7189,-6.7375,-6.7283,-6.7372,-6.7372,-6.7413,-6.7411,-6.7684,-6.7435,-6.7435,-6.7434,-6.7434,0,-6.6888,-6.6988,-6.6969,-6.7036,-6.7145,-6.7118,-6.7226,-6.7233,-6.7258,-6.7323,-6.7274,-6.7336,-6.7306,-6.7365,-6.735,-6.745,-6.7464,-6.7461,-6.7455,-6.7465,-6.7466,-6.7485,-6.7472,-6.7441,-6.744,-6.7438,-6.7437,0,-6.7098,-6.709,-6.7205,-6.7227,-6.7234,-6.7314,-6.7331,-6.7392,-6.7388,-6.7472,-6.749,-6.7484,-6.7551,-6.7535,-6.7608,-6.7597,-6.7723,-6.7702,-6.7713,-6.7708,-6.7797,-6.7789,-6.8092,-6.8129,-6.7857,-6.786,-6.7862,0,-6.7235,-6.7311,-6.734,-6.7382,-6.7402,-6.7469,-6.7507,-6.7482,-6.7524,-6.7565,-6.7621,-6.7684,-6.7734,-6.7843,-6.7843,-6.7898,-6.7878,-6.7981,-6.7886,-6.7893,-6.7878,-6.7874,-6.7881,-6.7999,-6.8002,-6.8005,-6.8007,0,-6.7477,-6.7469,-6.7528,-6.7585,-6.7633,-6.7676,-6.7714,-6.775,-6.7727,-6.7776,-6.7845,-6.7883,-6.7958,-6.8021,-6.8071,-6.8084,-6.8042,-6.8037,-6.806,-6.807,-6.8073,-6.8072,-6.7763,-6.803,-6.8028,-6.8026,-6.8025,-6.8024,-6.7654,-6.7718,-6.7749,-6.7815,-6.7842,-6.7878,-6.7937,-6.7941,-6.7999,-6.8059,-6.804,-6.8119,-6.8146,-6.821,-6.8229,-6.8288,-6.8249,-6.8283,-6.8291,-6.83,-6.8311,-6.8065,-6.8297,-6.8296,-6.8296,-6.8295,-6.8295,0,-6.7893,-6.791,-6.7972,-6.8027,-6.8079,-6.8036,-6.8076,-6.8121,-6.8191,-6.8222,-6.8271,-6.835,-6.841,-6.8415,-6.8471,-6.8517,-6.8499,-6.8532,-6.8528,-6.8532,-6.8343,-6.8317,-6.8546,-6.8546,-6.8546,-6.8546,-6.8546,-6.8546,-6.8024,-6.8129,-6.8125,-6.8242,-6.8257,-6.8335,-6.8362,-6.8394,-6.8418,-6.8508,-6.8559,-6.8563,-6.8582,-6.8639,-6.8691,-6.8691,-6.8713,-6.8754,-6.8747,-6.857,-6.8545,-6.8521,-6.8496,-6.876,-6.876,-6.893,-6.8932,-6.8933]}]]